Home   Weather   Resolute Bay   Past weeks
Flag for Canada

Past Weather in Resolute Bay, Nunavut, Canada — Yesterday and Last 2 Weeks

Now
19 °F

Partly sunny.


Feels Like: 2 °F
Forecast: 29 / 14 °F
Wind: 24 mph from East

Location: Resolute

Current Time: Oct 21, 2019 at 1:13:33 pm

Latest Report: Oct 21, 2019 at 12:00 pm


Visibility: 1 mi

Pressure: 29.96 "Hg

Humidity: 86%

Dew Point: 16 °F

Location of Resolute BayLocation

Past Weather in Resolute Bay — Graph

°F

Resolute Bay Temperature Yesterday

Maximum temperature yesterday: 12 °F (at 8:00 pm)
Minimum temperature yesterday: 3 °F (at 12:00 am)
Average temperature yesterday: 8 °F

High & Low Weather Summary for the Past Weeks

 TemperatureHumidityPressure
High28 °F (Oct 13, 9:24 pm)100% (Oct 8, 5:00 am)30.22 "Hg (Oct 8, 5:00 am)
Low1 °F (Oct 18, 11:00 pm)72% (Oct 12, 11:00 pm)29.23 "Hg (Oct 13, 10:00 pm)
Average17 °F89%29.82 "Hg
* Reported Oct 6 12:00 pm — Oct 21 12:00 pm, Resolute Bay. Weather by CustomWeather, © 2019

Note: Actual official high and low records may vary slightly from our data, if they occured in-between our weather recording intervals... More about our weather records

Advertising

Resolute Bay Weather History for the Previous 24 Hours

Scroll right to see more
 ConditionsComfort  
Time TempWeatherWind HumidityBarometerVisibility
12:00 pm
Mon, Oct 21
19 °FPartly sunny.24 mph86%29.96 "Hg1 mi
11:00 am18 °FPartly sunny.35 mph86%29.97 "Hg2 mi
10:00 am16 °FBroken clouds.29 mph86%30.00 "Hg2 mi
9:00 am16 °FPassing clouds.32 mph86%30.01 "Hg2 mi
8:00 am16 °FPassing clouds.35 mph86%30.03 "Hg2 mi
7:44 am14 °FPassing clouds.31 mph85%30.03 "Hg2 mi
7:00 am16 °FSnow flurries. Passing clouds.31 mph73%30.04 "Hg6 mi
6:00 am16 °FSnow flurries. Passing clouds.29 mph73%30.06 "Hg7 mi
5:00 am14 °FSnow flurries. Passing clouds.26 mph79%30.08 "Hg7 mi
4:00 am14 °FSnow flurries. Low level haze.28 mph79%30.09 "Hg5 mi
3:00 am14 °FSnow flurries. Passing clouds.29 mph79%30.11 "Hg5 mi
2:00 am14 °FSnow flurries. Passing clouds.31 mph79%30.12 "Hg4 mi
1:00 am12 °FSnow flurries. Low level haze.31 mph85%30.13 "Hg5 mi
12:00 am12 °FSnow flurries. Ice fog.28 mph85%30.16 "Hg7 mi
11:00 pm
Sun, Oct 20
10 °FSnow flurries. Low level haze.31 mph85%30.17 "Hg7 mi
10:00 pm12 °FSnow flurries. Low level haze.30 mph79%30.18 "Hg7 mi
9:00 pm12 °FSnow flurries. Low level haze.32 mph79%30.18 "Hg6 mi
8:00 pm12 °FSnow flurries. Low level haze.30 mph79%30.19 "Hg10 mi
7:00 pm10 °FSnow flurries. Low level haze.29 mph79%30.19 "Hg12 mi
6:00 pm9 °FSnow flurries. Passing clouds.25 mph85%30.20 "Hg10 mi
5:00 pm9 °FSnow flurries. Partly cloudy.26 mph78%30.21 "Hg10 mi
4:00 pm7 °FSnow flurries. Low level haze.26 mph85%30.20 "Hg12 mi
3:00 pm10 °FSnow flurries. Scattered clouds.24 mph79%30.20 "Hg12 mi
2:00 pm10 °FSnow flurries. Partly sunny.26 mph85%30.20 "Hg12 mi
1:43 pm10 °FSnow flurries. Partly sunny.24 mph85%30.20 "Hg15 mi
1:00 pm10 °FSnow flurries. Partly sunny.23 mph85%30.21 "Hg12 mi
Weather by CustomWeather, © 2019

See weather overview